Total_Precipitation_Accumulation
0.03 0.04 0.09 0.12 0.14 0.17 0.20 0.26 0.33 0.29 0.27 0.34 0.46 0.67 0.93 1.08 1.30 1.53 1.50 1.49 1.61 1.75 2.08 2.24 2.33 2.52 2.83 3.10 3.31 3.57 3.83 4.22 4.51 4.93 5.29 5.48 5.67 5.88 5.96 5.94 5.92 5.89 5.83 5.99
0.06 0.07 0.08 0.09 0.09 0.11 0.15 0.22 0.31 0.34 0.33 0.35 0.50 0.71 0.95 1.08 1.25 1.52 1.62 1.65 1.66 1.79 2.02 2.33 2.66 3.06 3.31 3.53 3.65 3.92 4.26 4.56 4.73 5.13 5.67 6.19 6.43 6.52 6.52 6.55 6.70 6.71 6.69 6.88
0.08 0.08 0.08 0.07 0.07 0.08 0.12 0.18 0.21 0.30 0.36 0.43 0.64 1.07 1.30 1.34 1.48 1.64 1.67 1.78 1.77 1.86 2.14 2.45 2.93 3.27 3.39 3.52 3.66 3.87 4.42 4.92 5.37 5.80 6.39 6.90 7.26 7.28 7.12 6.80 6.91 7.05 6.85 6.90
0.08 0.08 0.06 0.07 0.07 0.09 0.14 0.15 0.17 0.25 0.39 0.57 0.65 1.36 1.76 1.86 1.86 1.78 1.79 1.87 1.85 1.86 2.10 2.46 2.77 3.09 3.27 3.37 3.69 3.99 4.43 5.11 5.64 5.93 6.56 7.26 7.51 7.76 7.80 7.60 7.33 7.13 6.87 6.69
0.08 0.07 0.09 0.09 0.09 0.09 0.12 0.13 0.19 0.24 0.33 0.52 0.58 1.10 1.89 2.08 2.24 2.01 1.94 1.95 1.79 1.75 1.91 2.29 2.57 2.90 3.29 3.38 3.50 3.73 4.29 4.92 5.67 6.32 6.83 7.46 7.91 8.20 8.13 7.70 7.23 6.70 6.37 5.89
0.08 0.07 0.08 0.08 0.07 0.07 0.12 0.17 0.27 0.33 0.44 0.73 0.70 1.06 1.99 2.28 2.47 2.54 2.21 1.98 1.78 1.73 1.81 2.01 2.31 2.63 2.94 2.99 3.23 3.52 3.98 4.70 5.42 6.02 6.62 7.16 7.57 7.70 7.40 6.86 6.33 5.95 5.58 5.05
0.14 0.11 0.08 0.07 0.09 0.11 0.15 0.32 0.67 0.88 0.99 0.97 0.74 1.09 1.94 2.15 2.00 2.09 2.15 2.17 1.95 1.74 1.83 2.08 2.31 2.62 2.76 2.82 3.06 3.42 3.97 4.61 5.01 5.47 5.98 6.32 6.54 6.67 6.64 6.36 5.90 5.53 5.01 4.53
0.27 0.24 0.11 0.07 0.10 0.16 0.16 0.33 0.87 1.16 1.15 1.13 1.11 1.61 2.28 2.12 1.77 1.77 1.91 2.06 1.88 1.80 1.98 2.34 2.43 2.58 2.77 2.81 3.02 3.38 3.85 4.23 4.43 4.62 5.02 5.37 5.52 5.56 5.44 5.29 4.90 4.59 4.22 3.91
0.31 0.31 0.14 0.08 0.09 0.12 0.22 0.28 0.45 0.68 0.76 1.15 1.65 2.19 2.80 2.62 2.06 1.86 1.90 1.94 1.98 1.95 2.05 2.33 2.49 2.59 2.71 2.75 2.94 3.14 3.41 3.58 3.76 3.91 4.13 4.36 4.42 4.33 4.19 4.02 3.77 3.57 3.37 3.03
0.30 0.31 0.21 0.14 0.14 0.16 0.21 0.32 0.47 0.77 1.15 1.54 1.88 2.64 3.49 3.32 2.64 2.17 2.05 2.00 2.00 1.99 2.03 2.24 2.36 2.48 2.55 2.54 2.63 2.72 2.94 3.09 3.27 3.35 3.37 3.30 3.37 3.31 3.16 2.97 2.83 2.65 2.48 2.38
0.39 0.43 0.31 0.23 0.25 0.28 0.29 0.38 0.57 0.76 0.88 1.49 2.18 3.12 3.30 3.35 3.02 2.62 2.19 1.97 1.93 1.92 1.93 2.05 2.21 2.25 2.24 2.21 2.26 2.42 2.58 2.77 2.89 2.90 2.96 2.91 2.80 2.61 2.50 2.35 2.23 2.16 2.09 2.07
0.40 0.52 0.50 0.34 0.29 0.25 0.29 0.41 0.62 1.00 1.05 1.24 1.92 3.15 3.14 3.37 3.26 2.92 2.54 2.23 2.08 2.01 1.89 1.83 1.90 1.95 1.96 2.03 2.15 2.30 2.33 2.41 2.48 2.59 2.65 2.67 2.61 2.43 2.23 2.09 2.00 2.00 2.00 1.97
0.39 0.64 0.91 0.94 0.80 0.45 0.36 0.37 0.48 0.66 0.96 1.35 1.99 3.14 3.18 3.14 3.12 3.10 2.85 2.48 2.22 2.11 1.93 1.87 1.85 1.84 1.85 2.05 2.18 2.17 2.24 2.29 2.35 2.51 2.55 2.56 2.59 2.43 2.20 2.08 2.10 2.08 2.02 2.00
0.32 0.64 1.10 1.50 1.44 0.84 0.61 0.47 0.49 0.69 1.16 1.38 1.74 2.49 2.80 2.89 3.07 3.30 3.21 2.68 2.21 2.10 2.04 2.09 2.13 2.07 1.99 2.07 2.25 2.27 2.37 2.42 2.44 2.46 2.40 2.23 2.15 2.13 2.12 2.07 2.03 1.98 1.93 1.94
0.42 0.72 0.67 0.63 0.66 0.67 0.63 0.60 0.63 0.74 0.85 1.26 1.70 2.25 2.70 2.92 2.90 2.94 2.79 2.57 2.20 2.10 2.21 2.20 2.12 2.10 2.02 2.01 2.20 2.35 2.40 2.36 2.61 2.66 2.52 2.35 2.15 2.13 2.13 2.06 1.99 1.93 1.88 1.76
0.46 0.72 0.69 0.67 0.56 0.65 0.69 0.71 0.81 0.91 0.98 1.23 1.77 2.50 2.82 2.96 2.89 2.90 2.80 2.62 2.54 2.45 2.37 2.34 2.32 2.30 2.23 2.13 2.22 2.42 2.45 2.40 2.53 2.54 2.60 2.62 2.54 2.53 2.41 2.21 2.09 2.05 2.03 1.96
0.50 0.79 1.05 1.06 0.69 0.92 1.38 1.05 1.01 1.19 1.28 1.55 2.21 2.55 2.48 2.58 2.80 2.98 3.03 2.91 2.82 2.78 2.63 2.60 2.64 2.59 2.59 2.55 2.49 2.51 2.46 2.40 2.44 2.55 2.63 2.64 2.61 2.54 2.46 2.24 2.18 2.22 2.14 2.04
0.55 0.90 1.20 1.26 1.36 2.08 1.88 1.14 1.11 1.36 1.57 1.76 2.04 2.14 2.19 2.22 2.35 2.49 2.63 2.77 2.76 2.69 2.63 2.66 2.79 2.77 2.76 2.66 2.61 2.53 2.51 2.57 2.66 2.72 2.70 2.60 2.47 2.45 2.39 2.37 2.34 2.27 2.17 2.06
0.41 0.84 1.32 1.49 1.87 2.12 1.91 1.24 1.27 1.77 2.35 1.97 1.96 1.84 1.67 1.66 1.96 2.47 2.52 2.53 2.70 2.72 2.69 2.66 2.65 2.65 2.71 2.64 2.56 2.52 2.52 2.56 2.60 2.62 2.51 2.43 2.45 2.47 2.30 2.27 2.24 2.20 2.11 2.00
0.44 0.69 1.32 1.63 2.22 2.62 2.38 1.29 1.07 1.66 2.95 2.24 1.95 1.90 1.76 1.86 2.41 2.68 2.48 2.43 2.41 2.41 2.45 2.37 2.22 2.17 2.37 2.52 2.52 2.43 2.37 2.39 2.38 2.22 2.05 1.99 2.10 2.13 1.98 1.87 1.84 1.86 1.92 1.93
1.08 1.21 1.50 1.81 2.38 2.59 1.58 0.98 1.19 2.54 3.14 2.37 1.96 1.86 1.83 2.12 2.37 2.14 1.93 2.05 2.09 2.06 1.97 1.91 1.88 1.96 2.10 2.16 2.21 2.24 2.16 2.21 2.13 1.93 1.83 1.85 1.83 1.81 1.77 1.79 1.81 1.74 1.68 1.74
1.39 1.60 1.72 1.96 2.57 2.72 1.37 1.17 1.89 2.34 1.94 1.85 1.78 1.72 1.68 1.65 1.56 1.56 1.61 1.63 1.65 1.68 1.65 1.60 1.71 1.82 1.87 1.81 1.82 1.93 1.95 1.97 1.89 1.79 1.71 1.75 1.73 1.62 1.70 1.88 1.81 1.75 1.76 1.74
1.45 1.62 1.81 2.10 2.52 2.15 1.45 1.41 1.56 1.59 1.58 1.50 1.47 1.42 1.36 1.35 1.19 1.25 1.43 1.36 1.29 1.32 1.39 1.46 1.51 1.64 1.75 1.75 1.78 1.83 1.80 1.72 1.73 1.77 1.70 1.62 1.55 1.64 1.73 1.85 1.80 1.71 1.67 1.56
1.51 1.25 1.50 1.77 1.87 1.65 1.46 1.40 1.33 1.22 1.20 1.13 1.21 1.35 1.30 1.27 1.28 1.33 1.38 1.30 1.22 1.26 1.28 1.36 1.41 1.47 1.61 1.59 1.60 1.72 1.66 1.61 1.74 1.83 1.76 1.62 1.52 1.50 1.57 1.64 1.66 1.57 1.49 1.41
1.49 1.47 1.61 1.78 1.72 1.64 1.64 1.40 1.26 1.16 1.05 1.02 1.10 1.19 1.27 1.31 1.35 1.35 1.33 1.29 1.30 1.41 1.43 1.41 1.44 1.44 1.43 1.42 1.44 1.45 1.48 1.59 1.77 1.73 1.59 1.47 1.36 1.31 1.35 1.37 1.36 1.35 1.25 1.20
1.20 1.45 1.74 1.88 1.63 1.65 1.77 1.49 1.22 1.17 1.10 1.12 1.14 1.20 1.32 1.36 1.45 1.40 1.32 1.29 1.32 1.37 1.37 1.41 1.38 1.28 1.28 1.35 1.39 1.32 1.26 1.39 1.64 1.63 1.39 1.25 1.17 1.14 1.07 1.06 1.08 1.08 1.07 1.06